Wind_Speed
40 40 41 42 43 44 45 46 47 47 47 48 49 49 49 49 49 49 50 50 49 49 49 48 47 48 47 46 47 47 47 46 45 45 44 44 44 44 44 44 43 42 41
37 38 40 41 42 42 43 44 46 47 47 48 49 50 50 50 51 51 51 51 51 51 51 49 48 49 49 49 48 49 48 46 46 46 46 45 45 46 46 45 45 44 43
35 36 37 39 40 41 42 42 43 45 46 47 49 50 51 51 51 52 52 52 53 53 53 52 51 50 50 51 51 50 49 49 49 48 48 48 46 46 46 46 46 45 45
32 33 34 35 36 37 39 40 41 42 43 45 46 47 49 50 51 51 52 52 52 53 54 54 54 53 51 51 50 50 50 50 50 49 49 49 49 49 49 48 48 48 46
28 29 31 32 33 34 36 38 39 39 40 42 43 43 45 47 48 49 49 49 49 49 51 51 51 51 51 51 50 50 50 50 51 50 49 50 50 49 49 49 49 48 47
25 26 28 29 30 30 32 33 35 36 37 38 39 40 42 43 44 46 46 47 46 46 46 47 48 49 50 50 49 49 49 49 50 49 49 50 50 49 49 49 48 47 46
21 23 25 25 26 27 27 29 30 31 32 34 35 36 37 38 39 41 43 44 45 44 44 44 45 46 48 48 48 48 48 48 49 50 50 50 50 50 50 49 48 47 46
18 19 20 21 22 23 24 24 25 26 27 28 30 31 32 34 35 37 39 40 40 41 42 42 43 45 45 47 48 48 48 48 48 50 51 51 50 51 50 49 48 48 48
15 16 17 17 17 18 20 21 21 23 25 26 27 28 29 31 32 34 35 37 38 39 40 41 41 42 43 44 45 47 48 49 50 50 50 50 50 49 49 48 48 49 50
12 12 14 15 15 15 16 18 19 20 22 24 25 26 27 28 30 31 32 34 36 37 37 38 39 40 40 42 44 46 47 47 49 49 49 48 48 48 48 48 48 48 48
10 11 11 12 12 12 13 14 15 16 17 19 21 22 24 26 27 28 29 30 31 33 33 34 37 38 39 40 41 42 43 44 44 45 46 46 46 47 48 48 49 49 48
8 8 9 10 10 9 9 9 11 12 13 14 16 17 18 20 21 22 23 24 26 27 29 30 32 33 34 35 36 37 39 40 40 40 41 42 44 45 46 47 48 49 49
7 8 8 8 7 8 9 9 9 9 10 11 12 14 15 16 17 18 19 20 21 23 25 28 29 30 31 32 34 35 37 37 37 38 40 41 42 44 45 46 47 47 49
7 7 6 6 7 7 7 7 8 8 8 9 10 10 10 11 13 15 16 18 19 20 22 24 26 28 29 30 31 31 33 35 36 38 40 41 42 43 43 44 45 46 47
7 7 6 6 6 5 6 7 7 7 8 8 9 10 10 10 12 13 14 16 18 19 20 21 22 24 26 27 29 30 32 34 36 38 39 41 42 43 44 44 45 46 47
7 7 7 7 6 6 6 7 7 7 8 9 9 9 10 11 12 12 13 14 16 17 19 20 22 23 25 27 28 30 31 32 34 36 37 39 40 41 43 45 46 47 48
8 9 9 9 8 7 7 7 7 7 7 8 9 10 10 9 10 12 13 15 16 17 18 20 21 22 23 24 25 27 29 31 33 35 37 38 39 41 42 44 46 48 49
10 11 11 10 10 9 8 8 8 8 8 8 8 8 9 10 11 13 15 16 17 18 19 21 22 23 24 26 28 29 31 32 34 36 37 38 39 41 42 43 45 47 49
11 11 10 10 10 10 10 9 9 9 9 9 9 11 12 13 14 15 16 17 19 20 21 22 24 25 27 28 30 31 32 34 35 36 37 37 38 40 41 42 44 45 47
12 12 12 11 11 11 11 11 11 11 11 12 13 13 14 15 16 17 18 19 20 21 22 24 25 27 28 29 30 32 33 34 34 34 35 36 37 38 39 41 42 44 45
13 13 13 13 13 13 13 14 13 14 14 15 15 16 17 17 18 19 20 21 23 24 25 26 27 28 29 30 31 32 33 33 32 33 34 36 38 39 40 42 43 43 44
15 15 15 15 15 15 16 16 16 16 16 17 18 19 19 20 20 21 23 24 25 26 27 28 29 29 30 31 32 32 32 33 33 35 36 38 39 40 41 42 42 43 44
18 18 18 18 18 18 18 18 19 19 19 19 20 21 21 21 23 24 25 27 27 28 28 29 30 31 31 32 33 33 35 36 36 37 39 39 39 40 41 41 42 43 44
21 21 21 21 21 21 21 21 21 22 22 22 23 23 23 24 26 27 28 28 29 29 30 30 31 32 33 33 34 35 35 36 37 38 38 39 39 40 40 41 42 43 43
24 24 24 24 23 23 24 24 24 25 25 25 26 26 27 28 29 29 30 31 32 32 33 33 33 34 34 34 35 36 36 38 38 38 39 39 40 41 41 42 42 42 42
26 26 26 26 26 26 26 27 27 27 27 28 28 29 29 30 31 32 33 34 34 35 35 36 36 37 37 37 37 37 38 39 40 40 40 40 40 41 41 41 41 41 41
Wind_Direction
259 260 260 260 259 258 257 257 257 256 256 256 255 253 253 253 252 252 252 252 252 251 253 254 254 256 257 258 259 260 260 260 260 261 262 262 263 265 267 268 270 270 270
260 261 261 261 260 259 259 259 258 257 256 256 255 253 252 253 252 251 252 252 252 252 252 253 254 256 256 257 258 259 259 259 260 261 262 262 265 267 267 267 268 268 268
262 263 263 262 262 260 259 259 258 257 256 255 255 253 253 253 253 252 253 253 253 252 252 252 253 254 256 257 258 258 258 259 260 262 262 263 265 266 266 267 267 268 269
264 264 263 262 261 261 260 259 259 258 256 256 255 254 254 253 253 253 253 253 253 253 252 253 253 253 255 257 257 259 259 260 261 262 263 264 265 265 265 265 266 268 270
264 264 263 263 263 264 262 260 260 259 258 257 255 254 254 253 252 253 253 253 254 254 254 253 253 254 254 256 257 258 258 258 259 260 262 265 265 266 266 265 265 267 267
265 265 265 265 265 266 265 263 261 260 260 257 255 255 256 254 253 253 252 252 252 253 254 254 254 254 254 255 256 256 257 258 259 260 263 264 265 266 267 267 265 264 265
268 268 268 268 268 267 266 264 263 261 260 257 256 256 255 253 253 253 252 252 252 252 253 255 255 255 254 254 255 256 257 258 260 260 262 263 265 267 268 268 267 265 265
273 272 273 271 271 269 266 264 263 260 258 258 257 255 255 255 254 253 252 251 251 252 253 254 255 254 255 254 254 256 256 258 260 261 263 264 266 267 267 267 267 266 266
276 276 276 275 274 273 269 266 263 259 258 259 257 255 256 256 256 255 253 251 253 254 255 254 254 254 255 255 254 256 257 258 260 262 263 265 266 266 265 266 267 267 267
284 281 280 278 279 277 274 269 267 265 263 261 260 258 257 256 256 257 255 254 255 256 256 254 254 255 257 257 257 258 259 259 260 261 263 264 265 265 265 265 266 268 269
286 286 286 285 284 286 284 279 274 272 270 266 263 259 257 257 257 257 257 257 258 257 256 256 257 257 258 258 259 260 260 260 261 262 263 263 263 264 265 265 266 268 270
301 302 301 296 291 290 292 291 285 279 274 269 266 263 260 260 260 260 258 258 258 257 257 259 260 260 261 260 261 261 262 261 263 264 264 264 265 266 266 267 267 268 270
310 309 309 307 302 296 296 296 293 285 276 271 268 266 265 265 264 261 261 261 260 260 260 261 262 262 262 263 265 264 263 264 264 265 265 267 267 267 268 268 268 270 271
328 327 324 316 309 304 304 302 299 291 280 275 273 272 273 272 270 267 266 265 266 266 265 265 265 265 264 266 267 267 266 265 266 267 268 268 268 268 268 269 269 271 272
326 329 329 323 316 310 311 312 307 299 290 286 283 281 279 277 276 274 273 272 271 270 270 270 270 269 269 271 272 270 269 268 269 269 269 270 270 269 270 270 271 273 274
318 321 321 315 313 310 311 316 315 308 297 291 288 282 281 279 279 276 277 277 276 275 274 275 275 275 275 275 275 275 275 274 273 272 273 272 272 272 271 271 272 273 275
306 307 310 307 306 301 303 307 311 315 309 300 293 292 292 289 286 281 282 281 280 279 279 280 281 280 280 281 281 280 278 277 276 277 278 277 275 275 275 275 275 276 277
302 301 301 298 296 294 297 303 309 309 310 308 301 295 293 293 292 289 290 291 288 286 286 287 288 286 286 286 286 285 284 282 281 281 280 279 278 278 278 279 280 280 280
297 300 300 299 296 293 294 298 304 307 304 303 301 300 298 297 298 296 295 294 292 291 291 292 291 289 287 286 286 287 287 285 283 282 281 281 281 281 281 282 283 284 284
288 290 293 296 295 292 292 293 294 297 296 296 298 298 298 298 300 301 299 297 296 297 295 294 292 291 290 289 289 289 290 289 288 287 285 285 284 284 285 286 287 287 287
285 285 286 287 288 288 288 288 291 293 295 296 296 296 297 298 298 300 302 302 300 298 297 296 295 294 292 291 291 292 292 292 291 290 290 290 288 288 288 288 288 289 290
282 282 284 284 286 287 287 287 288 292 295 297 298 299 300 302 302 301 303 305 305 303 301 299 297 296 295 295 294 294 295 295 294 293 292 292 292 290 289 290 290 290 291
280 280 280 280 283 285 287 287 289 291 294 297 299 300 300 302 303 304 305 305 304 303 302 301 299 298 298 297 297 296 297 296 296 295 295 295 293 292 291 289 290 290 291
278 279 280 280 280 282 285 286 287 289 292 295 297 298 298 300 302 303 305 305 305 304 303 303 302 301 299 298 297 297 297 297 298 298 297 296 294 294 293 292 291 292 292
276 278 280 280 279 280 283 285 287 289 292 293 295 297 297 299 300 302 303 304 305 305 303 302 302 301 300 299 299 298 298 297 298 299 298 296 295 295 294 294 294 293 293
274 276 277 278 279 280 282 284 285 287 290 292 294 295 296 297 299 301 302 303 303 303 302 302 301 301 300 299 299 299 300 299 298 298 297 296 296 296 295 295 294 294 294
Height
5725 5725 5726 5726 5727 5728 5729 5730 5731 5733 5734 5736 5738 5740 5743 5745 5748 5750 5753 5755 5757 5759 5762 5764 5766 5768 5770 5772 5773 5774 5776 5777 5778 5779 5780 5781 5782 5782 5782 5782 5782 5781 5781
5716 5717 5717 5717 5717 5717 5718 5719 5720 5721 5722 5724 5726 5728 5730 5733 5736 5738 5741 5743 5745 5748 5750 5753 5755 5757 5759 5760 5762 5764 5765 5766 5767 5769 5770 5771 5772 5772 5772 5772 5772 5771 5771
5708 5708 5708 5707 5707 5707 5707 5708 5708 5709 5710 5711 5713 5715 5718 5720 5723 5726 5728 5731 5733 5735 5738 5741 5743 5746 5747 5749 5751 5752 5753 5755 5757 5757 5759 5760 5762 5762 5762 5761 5761 5760 5760
5700 5699 5699 5698 5698 5697 5697 5697 5697 5697 5698 5699 5701 5703 5705 5708 5711 5713 5716 5718 5720 5723 5726 5728 5731 5734 5735 5738 5739 5741 5742 5744 5745 5746 5747 5748 5749 5750 5751 5751 5750 5749 5749
5693 5692 5691 5691 5690 5689 5688 5688 5687 5688 5688 5689 5690 5692 5694 5696 5698 5701 5703 5706 5708 5710 5713 5716 5719 5721 5723 5725 5727 5729 5731 5732 5734 5735 5736 5736 5737 5737 5738 5740 5740 5738 5738
5687 5685 5684 5683 5682 5681 5680 5679 5678 5679 5679 5679 5681 5682 5684 5685 5687 5689 5692 5695 5697 5700 5702 5705 5707 5709 5711 5713 5715 5717 5719 5721 5722 5723 5724 5725 5725 5726 5726 5726 5727 5727 5727
5681 5679 5678 5677 5676 5674 5672 5671 5670 5670 5671 5671 5672 5673 5675 5676 5678 5680 5682 5684 5687 5690 5692 5694 5696 5698 5699 5701 5703 5705 5707 5709 5710 5711 5712 5712 5713 5713 5713 5714 5714 5715 5716
5675 5674 5672 5671 5669 5668 5666 5665 5664 5664 5664 5664 5665 5666 5667 5668 5670 5671 5673 5675 5677 5680 5682 5684 5686 5687 5689 5690 5692 5694 5696 5697 5698 5699 5700 5700 5700 5701 5701 5702 5702 5703 5704
5670 5669 5667 5666 5664 5662 5661 5660 5659 5659 5659 5659 5659 5659 5660 5661 5663 5663 5664 5666 5669 5670 5672 5674 5676 5677 5679 5680 5681 5683 5684 5685 5686 5687 5687 5688 5688 5688 5689 5689 5690 5691 5691
5666 5664 5662 5661 5659 5658 5656 5655 5653 5653 5652 5652 5652 5653 5654 5654 5656 5656 5657 5659 5660 5661 5662 5664 5666 5667 5669 5670 5671 5672 5672 5673 5674 5675 5675 5676 5676 5677 5677 5678 5678 5678 5678
5662 5660 5658 5657 5655 5654 5652 5650 5649 5648 5647 5647 5647 5647 5648 5648 5649 5650 5651 5651 5652 5653 5654 5655 5656 5658 5658 5659 5659 5660 5661 5661 5662 5663 5663 5664 5665 5665 5665 5665 5665 5665 5665
5659 5657 5655 5653 5652 5650 5649 5647 5645 5644 5643 5643 5642 5642 5642 5643 5643 5643 5644 5645 5645 5646 5646 5647 5648 5648 5648 5649 5649 5650 5650 5650 5651 5652 5652 5652 5652 5653 5653 5653 5653 5653 5652
5657 5655 5652 5651 5649 5648 5647 5645 5643 5642 5641 5640 5639 5639 5638 5638 5638 5638 5639 5639 5639 5639 5639 5640 5640 5640 5640 5640 5639 5639 5640 5640 5641 5641 5641 5641 5640 5641 5641 5640 5640 5640 5639
5655 5652 5650 5649 5647 5646 5644 5643 5641 5639 5638 5637 5637 5636 5636 5635 5634 5634 5634 5634 5634 5634 5633 5633 5633 5632 5632 5631 5631 5630 5630 5630 5630 5630 5630 5629 5629 5629 5628 5627 5627 5626 5625
5653 5651 5649 5647 5646 5644 5643 5641 5639 5638 5636 5635 5634 5634 5633 5632 5631 5630 5630 5629 5629 5628 5627 5627 5626 5625 5624 5623 5622 5621 5620 5619 5619 5618 5618 5617 5616 5615 5615 5614 5614 5613 5612
5651 5650 5648 5646 5644 5643 5641 5639 5638 5636 5634 5633 5632 5631 5630 5629 5628 5627 5626 5625 5624 5623 5622 5621 5619 5618 5616 5615 5613 5611 5610 5609 5608 5607 5606 5605 5604 5603 5602 5601 5600 5599 5597
5650 5648 5646 5644 5643 5641 5639 5638 5636 5634 5632 5631 5630 5629 5627 5626 5625 5624 5623 5621 5620 5618 5616 5615 5613 5611 5609 5607 5605 5603 5601 5600 5598 5597 5595 5594 5592 5591 5589 5588 5587 5585 5583
5647 5645 5644 5642 5641 5639 5638 5636 5634 5632 5631 5629 5627 5626 5625 5623 5622 5620 5618 5616 5614 5612 5610 5608 5606 5604 5602 5600 5597 5595 5593 5591 5589 5587 5585 5583 5581 5579 5577 5576 5573 5571 5568
5644 5643 5641 5639 5638 5637 5635 5634 5632 5630 5628 5627 5625 5623 5621 5620 5617 5615 5613 5611 5609 5607 5604 5601 5599 5597 5594 5592 5590 5587 5584 5582 5579 5577 5574 5572 5570 5567 5565 5563 5560 5557 5554
5641 5640 5638 5637 5635 5634 5632 5631 5629 5627 5625 5623 5621 5619 5617 5615 5613 5611 5608 5606 5603 5600 5597 5595 5592 5589 5587 5584 5581 5578 5576 5573 5570 5567 5564 5561 5559 5556 5553 5550 5548 5545 5541
5638 5636 5635 5633 5632 5630 5629 5627 5625 5623 5622 5619 5617 5615 5613 5611 5608 5606 5603 5600 5597 5594 5591 5588 5585 5582 5579 5576 5573 5570 5566 5563 5560 5557 5554 5551 5548 5544 5541 5538 5535 5532 5529
5634 5633 5631 5629 5628 5626 5624 5623 5621 5619 5617 5615 5612 5610 5608 5605 5603 5600 5597 5594 5590 5587 5584 5580 5577 5574 5570 5567 5564 5560 5557 5554 5551 5547 5544 5540 5536 5533 5530 5526 5523 5520 5516
5629 5627 5626 5625 5623 5621 5620 5618 5616 5614 5612 5610 5607 5605 5602 5600 5597 5594 5591 5587 5584 5580 5576 5573 5569 5565 5562 5558 5554 5551 5547 5544 5540 5537 5533 5529 5525 5521 5518 5514 5511 5507 5504
5623 5622 5620 5619 5617 5616 5614 5612 5610 5608 5606 5604 5601 5599 5596 5594 5591 5587 5584 5580 5577 5573 5569 5565 5561 5557 5553 5549 5545 5542 5538 5534 5530 5526 5522 5517 5514 5510 5507 5503 5499 5495 5491
5615 5614 5613 5612 5610 5609 5607 5606 5604 5601 5599 5597 5594 5592 5589 5586 5583 5580 5576 5573 5569 5565 5561 5557 5552 5548 5544 5540 5536 5532 5528 5524 5520 5515 5511 5507 5503 5499 5495 5491 5487 5483 5479
5607 5606 5606 5604 5603 5601 5600 5598 5596 5594 5592 5589 5587 5584 5581 5578 5575 5572 5568 5564 5560 5556 5552 5547 5543 5538 5534 5530 5526 5522 5517 5513 5509 5505 5500 5496 5492 5488 5484 5479 5475 5471 5467